When you browse on this site, cookies collect data to enhance your experience and personalize the content and advertising you see.
Visit our Privacy Policy to learn more. By continuing to use the site, you agree to this use of cookies and data.
  • în România
  • Lista ţărilor
  • Pe 7 zile
  • Temperatura apei
  • Hartă satelitară
  • Meteo pe hartă
  • Widget-uri
  • user-avatar
    Intrare

    Meteo pe oră la Chernovskiy

    Astăzi, 21 Mai, Marţi

    Timp Temperatura Precipitaţii Vânt Presiune Umiditate
    00:00 +5°C° 0 mm 2 m/s 760 mmHg 72%
    01:00 +5°C° 0 mm 2 m/s 760 mmHg 74%
    02:00 +4°C° 0 mm 3 m/s 761 mmHg 76%
    03:00 +5°C° 0 mm 2 m/s 760 mmHg 82%
    04:00 +5°C° 0 mm 3 m/s 761 mmHg 79%
    05:00 +7°C° 0 mm 3 m/s 761 mmHg 76%
    06:00 +7°C° 0 mm 4 m/s 761 mmHg 73%
    07:00 +8°C° 0.1 mm 4 m/s 761 mmHg 65%
    08:00 +11°C° 0.1 mm 4 m/s 761 mmHg 57%
    09:00 +12°C° 0 mm 5 m/s 761 mmHg 49%
    10:00 +13°C° 0 mm 5 m/s 761 mmHg 47%
    11:00 +14°C° 0 mm 5 m/s 761 mmHg 46%
    12:00 +14°C° 0 mm 5 m/s 761 mmHg 44%
    13:00 +14°C° 0 mm 5 m/s 761 mmHg 44%
    14:00 +15°C° 0 mm 5 m/s 761 mmHg 43%
    15:00 +15°C° 0 mm 4 m/s 761 mmHg 43%
    16:00 +15°C° 0 mm 4 m/s 761 mmHg 47%
    17:00 +16°C° 0 mm 3 m/s 761 mmHg 50%
    18:00 +14°C° 0 mm 3 m/s 761 mmHg 54%
    19:00 +14°C° 0 mm 2 m/s 761 mmHg 56%
    20:00 +12°C° 0 mm 2 m/s 761 mmHg 58%
    21:00 +10°C° 0 mm 2 m/s 761 mmHg 60%
    22:00 +10°C° 0 mm 2 m/s 761 mmHg 61%
    23:00 +9°C° 0 mm 2 m/s 761 mmHg 62%

    Mâine, 22 Mai, Miercuri

    Timp Temperatura Precipitaţii Vânt Presiune Umiditate
    00:00 +9°C° 0 mm 2 m/s 761 mmHg 63%
    01:00 +9°C° 0 mm 3 m/s 761 mmHg 64%
    02:00 +8°C° 0 mm 3 m/s 761 mmHg 65%
    03:00 +8°C° 0 mm 3 m/s 761 mmHg 66%
    04:00 +9°C° 0 mm 3 m/s 760 mmHg 66%
    05:00 +10°C° 0 mm 3 m/s 760 mmHg 66%
    06:00 +11°C° 0 mm 3 m/s 760 mmHg 66%
    07:00 +13°C° 0.2 mm 2 m/s 760 mmHg 69%
    08:00 +13°C° 0.2 mm 2 m/s 759 mmHg 71%
    09:00 +13°C° 0.2 mm 1 m/s 759 mmHg 74%
    10:00 +13°C° 1.3 mm 2 m/s 759 mmHg 79%
    11:00 +12°C° 1.3 mm 2 m/s 758 mmHg 84%
    12:00 +11°C° 1.3 mm 3 m/s 758 mmHg 89%
    13:00 +12°C° 0.3 mm 3 m/s 758 mmHg 85%
    14:00 +13°C° 0.3 mm 3 m/s 757 mmHg 81%
    15:00 +16°C° 0.3 mm 3 m/s 757 mmHg 77%
    16:00 +16°C° 0.6 mm 3 m/s 757 mmHg 79%
    17:00 +16°C° 0.6 mm 2 m/s 756 mmHg 82%
    18:00 +16°C° 0.6 mm 1 m/s 756 mmHg 85%
    19:00 +16°C° 0.2 mm 1 m/s 756 mmHg 85%
    20:00 +15°C° 0.2 mm 1 m/s 756 mmHg 85%
    21:00 +15°C° 0.2 mm 1 m/s 756 mmHg 85%
    22:00 +15°C° 0 mm 2 m/s 755 mmHg 85%
    23:00 +13°C° 0 mm 3 m/s 755 mmHg 85%

    Poimâine, 23 Mai, Joi

    Timp Temperatura Precipitaţii Vânt Presiune Umiditate
    00:00 +13°C° 0 mm 3 m/s 755 mmHg 86%
    01:00 +13°C° 0 mm 4 m/s 755 mmHg 86%
    02:00 +13°C° 0 mm 4 m/s 755 mmHg 86%
    03:00 +13°C° 0 mm 4 m/s 754 mmHg 86%
    04:00 +13°C° 0 mm 4 m/s 754 mmHg 83%
    05:00 +14°C° 0 mm 4 m/s 754 mmHg 79%
    06:00 +15°C° 0 mm 5 m/s 754 mmHg 75%
    07:00 +16°C° 0 mm 5 m/s 754 mmHg 67%
    08:00 +19°C° 0 mm 6 m/s 754 mmHg 58%
    09:00 +20°C° 0 mm 7 m/s 753 mmHg 50%
    10:00 +21°C° 0 mm 7 m/s 753 mmHg 47%
    11:00 +22°C° 0 mm 7 m/s 753 mmHg 44%
    12:00 +23°C° 0 mm 7 m/s 753 mmHg 41%
    13:00 +23°C° 0 mm 7 m/s 752 mmHg 42%
    14:00 +23°C° 0 mm 7 m/s 752 mmHg 42%
    15:00 +23°C° 0 mm 7 m/s 752 mmHg 42%
    16:00 +22°C° 0 mm 6 m/s 751 mmHg 46%
    17:00 +21°C° 0 mm 5 m/s 751 mmHg 50%
    18:00 +20°C° 0 mm 4 m/s 751 mmHg 54%
    19:00 +19°C° 0 mm 4 m/s 750 mmHg 58%
    20:00 +18°C° 0 mm 4 m/s 750 mmHg 62%
    21:00 +16°C° 0 mm 3 m/s 750 mmHg 67%
    22:00 +16°C° 0.2 mm 3 m/s 750 mmHg 73%
    23:00 +14°C° 0.2 mm 3 m/s 750 mmHg 79%

    24 Mai, Vineri

    Timp Temperatura Precipitaţii Vânt Presiune Umiditate
    00:00 +14°C° 0.2 mm 3 m/s 750 mmHg 85%
    01:00 +14°C° 1.2 mm 3 m/s 750 mmHg 88%
    02:00 +14°C° 1.2 mm 3 m/s 750 mmHg 91%
    03:00 +15°C° 1.2 mm 2 m/s 750 mmHg 94%
    04:00 +13°C° 1 mm 3 m/s 750 mmHg 91%
    05:00 +13°C° 1 mm 4 m/s 751 mmHg 88%
    06:00 +12°C° 1 mm 5 m/s 751 mmHg 85%
    07:00 +13°C° 0 mm 5 m/s 752 mmHg 80%
    08:00 +14°C° 0 mm 5 m/s 752 mmHg 74%
    09:00 +15°C° 0 mm 5 m/s 753 mmHg 68%
    10:00 +15°C° 0 mm 5 m/s 753 mmHg 63%
    11:00 +15°C° 0 mm 5 m/s 754 mmHg 58%
    12:00 +16°C° 0 mm 5 m/s 754 mmHg 53%
    13:00 +16°C° 0 mm 5 m/s 754 mmHg 52%
    14:00 +15°C° 0 mm 5 m/s 755 mmHg 50%
    15:00 +15°C° 0 mm 5 m/s 755 mmHg 48%
    16:00 +15°C° 0 mm 4 m/s 755 mmHg 52%
    17:00 +14°C° 0 mm 4 m/s 756 mmHg 56%
    18:00 +14°C° 0 mm 4 m/s 756 mmHg 60%
    19:00 +12°C° 0 mm 3 m/s 757 mmHg 62%
    20:00 +11°C° 0 mm 3 m/s 757 mmHg 64%
    21:00 +9°C° 0 mm 2 m/s 758 mmHg 66%
    22:00 +9°C° 0 mm 2 m/s 758 mmHg 67%
    23:00 +8°C° 0 mm 2 m/s 759 mmHg 68%

    25 Mai, Sâmbătă

    Timp Temperatura Precipitaţii Vânt Presiune Umiditate
    00:00 +8°C° 0 mm 2 m/s 759 mmHg 69%
    01:00 +7°C° 0 mm 2 m/s 759 mmHg 70%
    02:00 +7°C° 0 mm 2 m/s 759 mmHg 70%
    03:00 +8°C° 0 mm 1 m/s 760 mmHg 71%
    04:00 +8°C° 0 mm 2 m/s 760 mmHg 68%
    05:00 +9°C° 0 mm 2 m/s 760 mmHg 66%
    06:00 +9°C° 0 mm 2 m/s 760 mmHg 63%
    07:00 +12°C° 0 mm 2 m/s 760 mmHg 57%
    08:00 +13°C° 0 mm 2 m/s 761 mmHg 51%
    09:00 +13°C° 0 mm 3 m/s 761 mmHg 45%
    10:00 +14°C° 0 mm 3 m/s 760 mmHg 43%
    11:00 +16°C° 0 mm 3 m/s 760 mmHg 41%
    12:00 +17°C° 0 mm 3 m/s 760 mmHg 39%
    13:00 +18°C° 0 mm 3 m/s 760 mmHg 39%
    14:00 +19°C° 0 mm 3 m/s 759 mmHg 40%
    15:00 +19°C° 0 mm 3 m/s 759 mmHg 40%
    16:00 +19°C° 0 mm 3 m/s 758 mmHg 45%
    17:00 +18°C° 0 mm 3 m/s 758 mmHg 50%
    18:00 +18°C° 0 mm 3 m/s 758 mmHg 55%
    19:00 +16°C° 0 mm 3 m/s 758 mmHg 57%
    20:00 +14°C° 0 mm 3 m/s 758 mmHg 59%
    21:00 +13°C° 0 mm 4 m/s 758 mmHg 61%
    22:00 +12°C° 0 mm 4 m/s 757 mmHg 60%
    23:00 +12°C° 0 mm 4 m/s 757 mmHg 59%

    26 Mai, Duminică

    Timp Temperatura Precipitaţii Vânt Presiune Umiditate
    00:00 +12°C° 0 mm 4 m/s 757 mmHg 58%
    01:00 +12°C° 0 mm 5 m/s 756 mmHg 56%
    02:00 +12°C° 0 mm 5 m/s 756 mmHg 54%
    03:00 +12°C° 0 mm 5 m/s 756 mmHg 53%
    04:00 +13°C° 0 mm 5 m/s 756 mmHg 55%
    05:00 +13°C° 0 mm 5 m/s 755 mmHg 58%
    06:00 +13°C° 0 mm 6 m/s 755 mmHg 60%
    07:00 +15°C° 0 mm 6 m/s 754 mmHg 58%
    08:00 +16°C° 0 mm 6 m/s 754 mmHg 56%
    09:00 +19°C° 0 mm 6 m/s 754 mmHg 53%
    10:00 +20°C° 0 mm 6 m/s 753 mmHg 53%
    11:00 +22°C° 0 mm 6 m/s 753 mmHg 52%
    12:00 +23°C° 0 mm 6 m/s 753 mmHg 52%
    13:00 +22°C° 0.3 mm 6 m/s 752 mmHg 60%
    14:00 +20°C° 0.3 mm 5 m/s 752 mmHg 69%
    15:00 +19°C° 0.3 mm 4 m/s 751 mmHg 77%
    16:00 +19°C° 0 mm 4 m/s 750 mmHg 76%
    17:00 +19°C° 0 mm 4 m/s 750 mmHg 75%
    18:00 +19°C° 0 mm 4 m/s 749 mmHg 74%
    19:00 +20°C° 0.1 mm 5 m/s 749 mmHg 71%
    20:00 +20°C° 0.1 mm 6 m/s 749 mmHg 69%
    21:00 +20°C° 0.1 mm 7 m/s 748 mmHg 66%
    22:00 +18°C° 0.4 mm 7 m/s 748 mmHg 71%
    23:00 +19°C° 0.4 mm 6 m/s 748 mmHg 76%
    Arată mai mult